Location: Lugrin
(46.4033°N, 6.6674°E)
Time: 09:04:31
(UTC+00:00)

N. Korean satellite - Pass Details

Date: 02 December 2020
Orbit: 453 x 502 km, 97.2° (Epoch: 16 January)

Event Time Altitude Azimuth Distance (km) Brightness Sun altitude
Rises 05:15:12 0° 10° (N) 2,565 10.2 -17.0°
Reaches altitude 10° 05:17:16 10° 9° (N) 1,687 9.2 -16.7°
Maximum altitude 05:20:54 75° 284° (WNW) 516 6.4 -16.1°
Drops below altitude 10° 05:24:32 10° 199° (SSW) 1,695 9.3 -15.5°
Sets 05:26:37 0° 198° (SSW) 2,578 10.2 -15.1°
